EDT,Max TemperatureF,Mean TemperatureF,Min TemperatureF,Max Dew PointF,MeanDew PointF,Min DewpointF,Max Humidity, Mean Humidity, Min Humidity, Max Sea Level PressureIn, Mean Sea Level PressureIn, Min Sea Level PressureIn, Max VisibilityMiles, Mean VisibilityMiles, Min VisibilityMiles, Max Wind SpeedMPH, Mean Wind SpeedMPH, Max Gust SpeedMPH,PrecipitationIn, CloudCover, Events, WindDirDegrees
2013-9-1,82,72,62,67,63,61,100,77,54,29.95,29.91,29.86,10,8,1,7,0,9,T,4,Rain,249
2013-9-2,84,74,64,67,64,63,93,74,55,29.94,29.89,29.84,10,9,2,14,3,17,0.00,6,Rain,262
2013-9-3,77,67,56,64,61,56,93,73,53,30.08,29.95,29.87,10,10,6,14,4,20,0.00,6,,310
2013-9-4,77,65,52,56,54,52,93,70,46,30.20,30.14,30.08,10,7,2,10,2,14,0.00,4,,265
2013-9-5,76,63,50,58,53,46,100,75,50,30.23,30.19,30.17,10,7,1,15,3,23,0.00,2,,320
2013-9-6,77,64,51,56,50,32,96,59,22,30.29,30.23,30.16,10,8,1,8,1,18,0.00,4,,287
2013-9-7,78,63,47,55,49,45,100,67,33,30.19,30.14,30.06,10,6,0,10,1,14,0.00,2,Fog,293
2013-9-8,81,68,55,65,60,53,93,74,54,30.11,30.04,30.00,10,10,6,13,1,15,0.06,4,Rain,320
2013-9-9,83,72,61,65,62,59,100,77,54,30.19,30.14,30.09,10,4,0,8,2,12,0.00,4,Fog,186
2013-9-10,86,76,66,70,66,63,97,78,58,30.27,30.20,30.15,10,10,6,8,2,13,T,5,,196
2013-9-11,84,74,64,71,66,63,93,79,65,30.28,30.22,30.12,10,5,0,16,2,21,0.02,4,Fog-Rain,310
2013-9-12,83,73,62,68,64,60,100,79,58,30.12,30.00,29.87,10,10,9,22,3,30,0.10,6,Rain,236
2013-9-13,67,59,51,63,53,45,93,73,52,30.06,29.93,29.83,10,10,4,16,6,22,0.33,7,Rain,324
2013-9-14,63,53,42,46,43,40,93,71,48,30.23,30.12,30.06,10,8,1,10,2,15,0.00,4,,320
2013-9-15,73,58,42,56,46,41,100,75,49,30.27,30.21,30.15,10,5,0,12,2,16,0.00,5,Fog,264
2013-9-16,63,55,47,57,52,46,100,84,67,30.33,30.22,30.12,10,9,1,10,3,23,0.15,7,Rain,339
2013-9-17,73,60,46,52,48,45,100,69,38,30.43,30.35,30.27,10,5,0,10,2,16,0.00,5,Fog,182
2013-9-18,73,58,42,59,49,41,100,79,57,30.31,30.26,30.19,10,7,0,9,1,46,0.02,4,Fog-Rain,335
2013-9-19,77,67,57,61,57,53,100,73,46,30.21,30.16,30.09,10,7,0,8,1,10,0.02,6,Fog-Rain,273
2013-9-20,76,67,57,67,61,55,93,79,64,30.11,30.05,29.94,10,9,1,14,2,18,0.45,5,Rain,205
2013-9-21,70,62,53,63,58,52,93,83,73,29.94,29.82,29.76,10,9,1,17,3,22,0.49,6,Rain,154
2013-9-22,66,57,47,54,51,46,100,78,56,30.04,29.92,29.85,10,7,0,12,2,16,0.00,7,Fog,329
2013-9-23,62,52,42,45,43,39,100,76,52,30.17,30.10,30.03,10,8,1,10,2,15,0.00,4,,343
2013-9-24,74,58,42,53,46,41,100,71,41,30.17,30.10,30.00,10,5,1,8,2,12,0.00,5,,229
2013-9-25,73,61,48,58,51,46,100,77,53,30.03,29.98,29.91,10,5,0,6,0,8,0.01,6,Fog,224
2013-9-26,75,61,47,58,53,46,96,87,78,30.13,30.02,29.96,10,9,2,10,2,14,0.00,4,,276
2013-9-27,75,60,45,53,47,44,100,71,41,30.25,30.18,30.13,10,5,0,9,2,13,0.00,4,Fog,338
2013-9-28,72,59,45,53,47,43,100,71,41,30.31,30.25,30.21,10,6,0,8,1,13,0.00,3,Fog,150
2013-9-29,74,59,43,55,48,42,93,67,41,30.22,30.15,30.08,10,10,3,8,1,12,0.00,2,,235
2013-9-30,72,60,48,58,50,46,100,77,53,30.14,30.10,30.06,10,5,0,8,1,13,0.00,7,Fog,330